• în Republica Moldova
  • Lista ţărilor
  • Pe 7 zile
  • Temperatura apei
  • Hartă satelitară
  • Meteo pe hartă
  • Widget-uri
  • user-avatar
    Intrare

    Meteo pe oră la Shaki

    Astăzi, 22 Ianuarie, Luni

    Timp Temperatura Precipitaţii Vânt Presiune Umiditate
    00:00 +8°C° 0 mm 3 m/s 735 mmHg 37%
    01:00 +8°C° 0 mm 3 m/s 735 mmHg 37%
    02:00 +8°C° 0 mm 2 m/s 735 mmHg 37%
    03:00 +8°C° 0 mm 2 m/s 735 mmHg 36%
    04:00 +8°C° 0 mm 2 m/s 735 mmHg 36%
    05:00 +7°C° 0 mm 2 m/s 735 mmHg 35%
    06:00 +8°C° 0 mm 1 m/s 735 mmHg 35%
    07:00 +8°C° 0 mm 2 m/s 734 mmHg 35%
    08:00 +9°C° 0 mm 2 m/s 734 mmHg 35%
    09:00 +9°C° 0 mm 2 m/s 734 mmHg 35%
    10:00 +10°C° 0 mm 2 m/s 733 mmHg 34%
    11:00 +12°C° 0 mm 2 m/s 733 mmHg 33%
    12:00 +13°C° 0 mm 1 m/s 732 mmHg 32%
    13:00 +13°C° 0 mm 1 m/s 731 mmHg 33%
    14:00 +13°C° 0 mm 2 m/s 731 mmHg 33%
    15:00 +13°C° 0 mm 2 m/s 730 mmHg 34%
    16:00 +12°C° 0 mm 2 m/s 730 mmHg 36%
    17:00 +9°C° 0 mm 2 m/s 730 mmHg 37%
    18:00 +8°C° 0 mm 2 m/s 730 mmHg 38%
    19:00 +8°C° 0 mm 2 m/s 729 mmHg 37%
    20:00 +8°C° 0 mm 3 m/s 729 mmHg 36%
    21:00 +7°C° 0 mm 3 m/s 729 mmHg 35%
    22:00 +7°C° 0 mm 3 m/s 729 mmHg 34%
    23:00 +7°C° 0 mm 3 m/s 729 mmHg 32%

    Mâine, 23 Ianuarie, Marţi

    Timp Temperatura Precipitaţii Vânt Presiune Umiditate
    00:00 +7°C° 0 mm 3 m/s 729 mmHg 31%
    01:00 +7°C° 0 mm 3 m/s 729 mmHg 31%
    02:00 +7°C° 0 mm 3 m/s 729 mmHg 30%
    03:00 +7°C° 0 mm 3 m/s 729 mmHg 30%
    04:00 +7°C° 0 mm 3 m/s 729 mmHg 31%
    05:00 +7°C° 0 mm 3 m/s 729 mmHg 33%
    06:00 +5°C° 0 mm 4 m/s 730 mmHg 34%
    07:00 +7°C° 0 mm 3 m/s 730 mmHg 34%
    08:00 +8°C° 0 mm 3 m/s 730 mmHg 35%
    09:00 +9°C° 0 mm 3 m/s 730 mmHg 35%
    10:00 +11°C° 0 mm 4 m/s 730 mmHg 33%
    11:00 +12°C° 0 mm 4 m/s 730 mmHg 31%
    12:00 +14°C° 0 mm 4 m/s 729 mmHg 28%
    13:00 +14°C° 0 mm 4 m/s 729 mmHg 29%
    14:00 +14°C° 0 mm 4 m/s 729 mmHg 29%
    15:00 +14°C° 0 mm 4 m/s 729 mmHg 30%
    16:00 +12°C° 0 mm 3 m/s 730 mmHg 31%
    17:00 +11°C° 0 mm 3 m/s 730 mmHg 32%
    18:00 +9°C° 0 mm 3 m/s 731 mmHg 33%
    19:00 +9°C° 0 mm 3 m/s 731 mmHg 34%
    20:00 +9°C° 0 mm 3 m/s 731 mmHg 34%
    21:00 +9°C° 0 mm 2 m/s 731 mmHg 34%
    22:00 +8°C° 0 mm 2 m/s 731 mmHg 36%
    23:00 +8°C° 0 mm 2 m/s 731 mmHg 38%

    Poimâine, 24 Ianuarie, Miercuri

    Timp Temperatura Precipitaţii Vânt Presiune Umiditate
    00:00 +8°C° 0 mm 2 m/s 731 mmHg 39%
    01:00 +8°C° 0 mm 2 m/s 731 mmHg 40%
    02:00 +8°C° 0 mm 3 m/s 732 mmHg 41%
    03:00 +7°C° 0 mm 3 m/s 732 mmHg 42%
    04:00 +7°C° 0 mm 3 m/s 732 mmHg 44%
    05:00 +7°C° 0 mm 3 m/s 732 mmHg 45%
    06:00 +7°C° 0 mm 3 m/s 732 mmHg 46%
    07:00 +7°C° 0 mm 3 m/s 733 mmHg 46%
    08:00 +8°C° 0 mm 3 m/s 733 mmHg 46%
    09:00 +8°C° 0 mm 4 m/s 734 mmHg 45%
    10:00 +10°C° 0 mm 4 m/s 734 mmHg 44%
    11:00 +11°C° 0 mm 4 m/s 734 mmHg 43%
    12:00 +12°C° 0 mm 5 m/s 734 mmHg 41%
    13:00 +12°C° 0 mm 4 m/s 734 mmHg 41%
    14:00 +12°C° 0 mm 4 m/s 735 mmHg 40%
    15:00 +12°C° 0 mm 4 m/s 735 mmHg 40%
    16:00 +11°C° 0 mm 3 m/s 736 mmHg 42%
    17:00 +9°C° 0 mm 3 m/s 736 mmHg 43%
    18:00 +8°C° 0 mm 2 m/s 737 mmHg 45%
    19:00 +7°C° 0 mm 2 m/s 737 mmHg 44%
    20:00 +7°C° 0 mm 2 m/s 738 mmHg 43%
    21:00 +6°C° 0 mm 2 m/s 738 mmHg 43%
    22:00 +6°C° 0 mm 2 m/s 739 mmHg 44%
    23:00 +5°C° 0 mm 2 m/s 739 mmHg 46%

    25 Ianuarie, Joi

    Timp Temperatura Precipitaţii Vânt Presiune Umiditate
    00:00 +5°C° 0 mm 2 m/s 739 mmHg 48%
    01:00 +4°C° 0 mm 2 m/s 739 mmHg 52%
    02:00 +4°C° 0 mm 2 m/s 740 mmHg 55%
    03:00 +4°C° 0 mm 2 m/s 740 mmHg 59%
    04:00 +4°C° 0 mm 2 m/s 740 mmHg 62%
    05:00 +5°C° 0 mm 1 m/s 740 mmHg 65%
    06:00 +4°C° 0 mm 1 m/s 741 mmHg 68%
    07:00 +4°C° 0 mm 2 m/s 741 mmHg 70%
    08:00 +4°C° 0 mm 2 m/s 741 mmHg 71%
    09:00 +5°C° 0 mm 2 m/s 742 mmHg 73%
    10:00 +5°C° 0 mm 2 m/s 742 mmHg 72%
    11:00 +6°C° 0 mm 2 m/s 741 mmHg 72%
    12:00 +6°C° 0 mm 2 m/s 741 mmHg 71%
    13:00 +6°C° 0 mm 2 m/s 741 mmHg 72%
    14:00 +6°C° 0 mm 2 m/s 741 mmHg 72%
    15:00 +6°C° 0 mm 2 m/s 741 mmHg 73%
    16:00 +6°C° 0,1 mm 2 m/s 741 mmHg 77%
    17:00 +5°C° 0,1 mm 2 m/s 741 mmHg 80%
    18:00 +5°C° 0,1 mm 2 m/s 742 mmHg 84%
    19:00 +5°C° 0,2 mm 2 m/s 742 mmHg 84%
    20:00 +4°C° 0,2 mm 2 m/s 742 mmHg 84%
    21:00 +4°C° 0,2 mm 2 m/s 742 mmHg 85%
    22:00 +4°C° 0,1 mm 2 m/s 742 mmHg 84%
    23:00 +4°C° 0,1 mm 2 m/s 742 mmHg 84%

    26 Ianuarie, Vineri

    Timp Temperatura Precipitaţii Vânt Presiune Umiditate
    00:00 +4°C° 0,1 mm 2 m/s 742 mmHg 84%
    01:00 +4°C° 0 mm 2 m/s 742 mmHg 84%
    02:00 +3°C° 0 mm 2 m/s 742 mmHg 84%
    03:00 +3°C° 0 mm 2 m/s 742 mmHg 84%
    04:00 +3°C° 0 mm 2 m/s 742 mmHg 84%
    05:00 +3°C° 0 mm 2 m/s 742 mmHg 83%
    06:00 +3°C° 0 mm 2 m/s 742 mmHg 83%
    07:00 +3°C° 0 mm 2 m/s 742 mmHg 81%
    08:00 +4°C° 0 mm 2 m/s 742 mmHg 79%
    09:00 +4°C° 0 mm 2 m/s 742 mmHg 77%
    10:00 +5°C° 0,1 mm 2 m/s 742 mmHg 76%
    11:00 +5°C° 0,1 mm 2 m/s 741 mmHg 75%
    12:00 +4°C° 0,1 mm 3 m/s 741 mmHg 74%
    13:00 +4°C° 0,1 mm 3 m/s 741 mmHg 74%
    14:00 +5°C° 0,1 mm 2 m/s 741 mmHg 74%
    15:00 +5°C° 0,1 mm 2 m/s 740 mmHg 75%
    16:00 +5°C° 0,1 mm 2 m/s 740 mmHg 77%
    17:00 +4°C° 0,1 mm 2 m/s 741 mmHg 80%
    18:00 +4°C° 0,1 mm 2 m/s 741 mmHg 83%
    19:00 +4°C° 0,2 mm 2 m/s 741 mmHg 83%
    20:00 +4°C° 0,2 mm 2 m/s 741 mmHg 83%
    21:00 +3°C° 0,2 mm 2 m/s 741 mmHg 84%
    22:00 +4°C° 0,1 mm 1 m/s 741 mmHg 84%
    23:00 +4°C° 0,1 mm 1 m/s 741 mmHg 84%

    27 Ianuarie, Sâmbătă

    Timp Temperatura Precipitaţii Vânt Presiune Umiditate
    00:00 +4°C° 0,1 mm 1 m/s 741 mmHg 84%
    01:00 +4°C° 0,1 mm 1 m/s 741 mmHg 84%
    02:00 +4°C° 0,1 mm 1 m/s 741 mmHg 84%
    03:00 +4°C° 0,1 mm 1 m/s 741 mmHg 85%
    04:00 +4°C° 0,1 mm 1 m/s 741 mmHg 85%
    05:00 +4°C° 0,1 mm 1 m/s 741 mmHg 85%
    06:00 +3°C° 0,1 mm 1 m/s 741 mmHg 85%
    07:00 +4°C° 0,1 mm 1 m/s 742 mmHg 83%
    08:00 +4°C° 0,1 mm 1 m/s 742 mmHg 81%
    09:00 +3°C° 0,1 mm 2 m/s 742 mmHg 79%
    10:00 +4°C° 0,1 mm 2 m/s 742 mmHg 77%
    11:00 +4°C° 0,1 mm 2 m/s 742 mmHg 75%
    12:00 +5°C° 0,1 mm 2 m/s 742 mmHg 72%
    13:00 +5°C° 0,1 mm 2 m/s 742 mmHg 72%
    14:00 +5°C° 0,1 mm 2 m/s 742 mmHg 72%
    15:00 +5°C° 0,1 mm 2 m/s 742 mmHg 71%
    16:00 +5°C° 0 mm 2 m/s 742 mmHg 75%
    17:00 +4°C° 0 mm 2 m/s 743 mmHg 79%
    18:00 +4°C° 0 mm 1 m/s 743 mmHg 83%
    19:00 +4°C° 0 mm 1 m/s 743 mmHg 83%
    20:00 +4°C° 0 mm 1 m/s 744 mmHg 83%
    21:00 +4°C° 0 mm 1 m/s 744 mmHg 83%
    22:00 +4°C° 0 mm 1 m/s 744 mmHg 82%
    23:00 +3°C° 0 mm 1 m/s 744 mmHg 81%
    Arată mai mult